Temperature
20 20 20 20 20 20 19 19 19 19 19 19 19 18 18 18 18 18 18 17 17 17 17 17 17 17 17 17 17 17 17 17 17 17 17 17 17 17 17 17 17 17 17
20 20 20 20 20 20 19 19 19 19 19 19 18 18 18 18 18 17 17 17 17 17 17 17 17 17 17 17 17 17 17 17 17 17 17 17 17 17 17 17 17 17 17
20 20 20 20 20 20 19 19 19 19 19 18 18 18 18 18 18 17 17 17 17 17 17 17 17 17 17 17 17 17 17 17 17 17 17 16 16 16 17 17 17 17 16
21 21 21 20 20 20 20 19 19 19 19 18 18 18 18 18 18 18 17 17 17 17 17 17 17 17 17 17 17 17 17 17 17 16 16 16 16 16 16 16 16 16 16
21 21 21 21 21 20 20 19 19 19 19 19 18 18 18 18 18 17 17 17 17 17 17 17 16 16 16 16 16 16 16 16 16 16 16 16 16 16 16 15 16 16 16
21 21 21 21 20 20 20 19 19 19 19 19 18 18 18 18 18 17 17 17 17 17 17 16 16 16 16 16 16 16 16 16 16 16 16 16 15 15 15 15 15 15 16
21 21 21 21 20 20 20 19 19 19 19 19 18 18 18 18 18 17 17 17 17 17 16 16 16 16 16 16 16 16 16 16 16 16 15 15 15 15 15 15 15 15 15
21 21 21 21 21 20 20 19 19 19 19 19 18 18 18 18 18 17 17 17 17 17 16 16 16 16 16 16 16 16 16 15 15 15 15 15 15 15 15 15 14 14 14
21 21 21 21 21 20 20 19 19 19 19 19 18 18 18 18 18 17 17 17 17 16 16 16 16 16 16 15 15 15 15 15 15 15 15 15 14 14 14 14 14 14 14
21 21 21 21 21 20 20 20 19 19 19 19 18 18 18 18 17 17 17 17 16 16 16 16 16 16 15 15 15 15 15 15 15 15 15 14 14 14 14 14 14 14 14
21 21 21 21 20 20 20 20 19 19 19 18 18 18 17 17 17 17 16 16 16 16 16 16 16 15 15 15 15 15 15 15 14 14 14 14 14 14 14 14 14 14 14
20 20 20 20 20 20 20 20 19 19 19 18 18 18 17 17 17 16 16 16 16 16 15 15 15 15 15 15 15 15 14 14 14 14 14 14 14 14 14 14 14 13 13
20 20 20 20 20 20 20 19 19 19 18 18 18 17 17 17 17 16 16 16 15 15 15 15 15 15 15 14 14 14 14 14 14 14 14 14 13 13 13 13 13 13 13
19 19 19 19 19 19 19 19 19 18 18 18 17 17 17 17 16 16 16 15 15 15 15 15 15 14 14 14 14 14 14 14 14 14 13 13 13 13 13 13 13 13 13
19 19 19 19 19 19 18 18 18 18 18 18 17 17 17 16 16 16 15 15 15 15 14 14 14 14 14 14 14 14 14 14 13 13 13 13 13 13 13 13 13 13 13
19 19 18 18 18 18 18 18 18 18 17 17 17 17 16 16 16 16 15 15 15 14 14 14 14 14 14 14 13 13 13 13 13 13 13 13 13 13 12 12 12 12 12
19 19 18 18 18 18 18 18 18 17 17 17 17 16 16 16 16 15 15 15 15 14 14 14 14 14 14 13 13 13 13 13 13 13 13 12 12 12 12 12 12 12 12
19 19 19 18 18 18 18 17 17 17 17 16 16 16 16 15 15 15 15 14 14 14 14 14 13 13 13 13 13 13 13 13 13 12 12 12 12 12 12 12 12 12 12
20 19 19 18 18 18 18 17 17 16 16 16 16 16 16 15 15 15 15 14 14 14 14 13 13 13 13 13 13 13 12 12 12 12 12 12 12 12 12 12 12 12 12
19 19 19 18 18 18 17 17 17 16 16 16 16 15 15 15 15 15 14 14 14 13 13 13 13 13 13 12 12 12 12 12 12 12 12 12 12 12 11 12 12 12 12
19 19 18 18 18 18 17 17 17 16 16 15 15 15 15 15 15 14 14 14 13 13 13 13 13 13 12 12 12 12 12 12 11 12 12 11 11 11 11 11 11 11 11
18 18 18 18 17 17 17 16 16 16 16 15 15 15 14 14 14 14 14 14 13 13 13 13 13 12 12 12 12 12 11 11 11 11 11 11 11 11 11 11 11 11 11
18 18 18 17 17 17 16 16 16 16 15 15 15 14 14 14 14 14 14 13 13 13 13 12 12 12 12 12 12 11 11 11 11 11 11 11 11 11 11 11 11 11 11
18 18 17 17 16 16 16 16 16 15 15 15 14 14 14 14 14 13 13 13 13 13 12 12 12 12 12 12 12 11 11 11 11 11 11 11 11 11 11 10 10 10 10
17 17 17 17 16 16 16 15 15 15 15 14 14 14 14 13 13 13 13 13 12 12 12 12 12 12 12 12 11 11 11 11 11 11 11 11 11 11 10 10 10 10 10
17 17 16 16 16 15 15 15 15 15 14 14 14 14 13 13 13 13 12 12 12 12 12 12 12 12 11 11 11 11 11 11 10 10 10 10 10 10 10 10 10 10 10
Wind_Speed
4 4 4 4 4 4 4 3 3 3 3 2 2 2 1 1 1 1 2 2 2 2 2 1 2 1 2 1 1 1 2 2 1 2 2 2 1 0 1 2 1 1 2
4 5 5 5 5 4 4 4 3 3 3 3 2 2 2 1 1 1 2 2 2 2 2 2 1 1 1 2 2 2 2 1 2 1 1 1 2 2 1 1 1 2 2
7 7 6 6 5 5 5 5 4 3 3 3 3 3 2 2 2 2 1 2 2 2 2 2 1 2 2 1 1 1 2 1 1 1 2 2 2 1 2 1 1 1 1
6 6 7 7 7 6 5 4 3 3 3 3 4 4 3 1 1 0 0 1 2 2 2 2 2 1 1 1 1 1 1 2 1 0 0 1 2 1 1 2 2 2 2
8 8 9 8 7 6 5 4 4 3 3 3 4 4 2 2 1 1 1 1 2 2 1 2 1 1 1 1 1 2 1 1 1 1 0 0 0 1 1 2 2 2 2
8 7 6 6 5 5 5 5 4 3 3 4 4 4 4 3 2 1 1 1 1 1 1 1 1 1 1 1 1 1 1 1 1 1 1 1 1 1 1 2 2 3 3
7 7 7 7 6 6 5 5 5 4 3 4 4 4 3 3 3 2 1 0 0 1 1 1 1 0 0 0 1 1 1 1 1 1 1 1 1 1 2 2 2 2 2
7 8 8 8 7 7 6 6 6 5 4 4 3 3 3 2 2 2 1 1 1 1 0 1 1 0 0 0 1 1 0 1 1 0 0 0 1 1 2 2 2 2 2
8 8 8 8 8 8 7 7 7 5 4 4 3 2 2 2 2 1 1 0 0 0 1 1 1 1 1 1 1 1 0 0 0 0 0 0 1 1 1 2 2 2 3
7 7 7 7 7 6 6 6 6 5 4 3 3 3 2 2 2 2 1 1 1 1 1 1 1 1 1 1 1 1 0 1 1 1 0 1 1 1 1 2 2 2 3
7 6 6 6 6 5 5 5 5 4 4 3 3 3 2 2 2 2 1 1 1 1 1 1 1 1 1 1 1 0 0 0 1 1 1 2 2 1 1 1 2 2 3
5 5 5 5 5 6 5 5 5 5 4 4 4 3 3 3 2 2 1 1 1 1 1 1 1 1 1 1 0 1 1 1 1 2 2 2 2 2 2 2 2 3 3
5 5 5 5 5 5 5 5 5 5 4 4 4 4 3 3 2 2 1 1 1 1 1 1 1 1 1 1 1 1 1 2 2 3 3 3 2 3 3 2 3 3 2
6 6 5 4 4 4 4 5 4 4 4 4 5 4 3 3 3 2 2 1 1 1 0 0 0 1 1 1 1 1 1 2 2 3 3 4 4 4 4 3 3 3 2
6 6 5 4 4 4 4 4 4 4 4 5 4 3 2 2 2 2 1 1 1 1 0 0 1 1 1 1 1 1 1 1 2 3 3 3 4 4 3 3 3 3 2
7 6 5 5 5 5 5 4 4 4 4 4 3 3 2 2 2 1 1 1 0 0 0 0 1 1 1 2 2 1 1 1 2 3 3 4 4 4 5 5 4 4 3
7 7 7 6 6 5 5 5 5 4 4 3 3 3 3 2 1 2 2 1 1 0 0 0 1 1 2 2 2 1 1 1 2 2 3 3 4 4 3 4 4 4 4
7 6 6 5 5 5 5 4 4 4 4 3 2 3 3 2 2 2 2 1 1 1 1 1 1 2 2 2 2 2 1 1 2 3 3 3 4 4 3 3 3 3 4
6 6 6 5 5 5 5 5 4 4 4 3 3 3 3 3 3 3 2 2 1 1 1 1 1 1 2 3 2 2 1 2 3 3 3 3 4 5 4 2 3 4 5
5 5 5 5 6 5 6 6 5 4 5 5 4 3 3 4 4 4 3 2 2 2 1 1 1 1 2 3 2 2 0 2 3 3 4 4 4 5 4 2 2 4 5
4 5 5 5 5 6 6 6 5 5 5 3 3 3 3 4 4 3 2 2 2 1 0 1 2 2 3 3 3 1 0 1 2 3 4 4 6 5 5 3 2 4 4
4 4 4 3 3 5 6 5 4 3 2 3 3 3 2 3 3 3 2 2 2 1 1 1 2 2 3 3 3 3 2 2 2 3 3 4 5 6 5 3 4 4 3
4 4 4 3 2 3 5 5 3 3 3 3 2 2 2 1 2 3 3 2 2 2 2 2 2 3 2 3 3 3 3 3 2 3 4 5 5 5 4 4 5 3 2
4 4 5 4 2 2 3 3 3 3 3 3 2 2 2 1 1 2 3 3 3 3 2 2 3 3 2 2 2 3 3 3 3 3 4 4 4 4 4 5 4 3 2
3 4 5 4 3 3 2 2 3 4 3 3 2 2 2 3 2 2 2 3 3 4 4 3 3 3 3 4 4 2 2 2 2 2 2 3 3 4 4 4 4 3 3
4 4 4 4 3 3 2 2 3 4 4 3 2 2 2 2 2 2 1 1 2 3 4 5 4 4 5 5 3 2 2 2 1 1 1 2 3 3 4 4 4 4 3
Wind_Direction
190 169 160 155 143 143 141 141 137 133 123 108 113 106 81 47 49 45 38 53 57 52 64 52 45 63 85 83 83 97 83 60 77 89 45 22 14 332 251 236 223 240 239
174 170 162 156 160 165 162 156 156 149 145 142 136 135 130 116 104 34 41 44 60 56 59 67 61 64 82 65 62 85 99 57 57 102 96 1 353 346 295 243 224 243 244
189 184 176 178 176 180 182 176 171 159 153 140 114 95 73 50 44 33 23 16 50 63 63 72 78 66 82 89 71 93 125 130 58 68 132 151 238 305 329 301 256 246 239
189 190 186 186 189 191 179 163 160 155 148 138 140 142 142 157 204 168 46 12 34 50 61 75 83 84 84 84 77 86 111 135 149 55 42 165 164 169 312 326 320 287 259
191 195 196 192 191 180 169 165 156 151 146 148 155 147 150 166 128 84 62 30 15 24 37 76 88 85 77 84 74 70 78 116 143 160 174 182 77 156 205 279 313 325 292
189 191 186 173 176 168 164 162 156 164 161 155 155 159 164 156 131 95 65 11 8 0 357 66 82 86 80 78 91 104 99 104 113 123 126 146 164 199 201 241 276 292 299
179 176 172 170 173 171 171 164 159 176 174 161 166 174 173 166 172 181 189 178 1 346 343 25 53 78 186 126 116 108 106 131 137 167 192 191 216 199 191 214 262 279 292
178 177 177 175 178 177 170 165 170 182 176 170 178 176 168 171 176 172 171 185 211 246 16 76 70 28 64 85 99 97 148 98 142 177 190 254 267 222 200 203 224 278 292
181 179 177 178 178 178 178 177 177 180 181 183 174 160 153 147 146 134 124 135 259 111 73 77 80 57 64 74 95 86 22 88 94 259 216 231 283 270 252 230 216 222 265
181 180 181 184 179 175 172 170 173 178 178 171 174 163 144 140 137 121 113 93 45 48 62 50 60 57 52 57 95 84 13 67 301 247 269 271 267 270 260 250 241 224 224
183 178 176 175 165 156 157 162 164 161 162 165 150 134 126 121 120 123 113 106 91 82 64 57 55 45 33 33 78 266 181 231 290 285 270 272 262 270 274 256 246 235 220
164 158 156 153 153 158 161 159 162 163 163 150 138 133 123 114 111 109 101 99 96 84 78 56 42 24 14 1 320 263 266 244 263 269 266 272 268 266 265 256 254 246 229
150 146 143 149 155 160 159 156 158 160 149 139 136 127 128 131 143 158 157 155 128 78 70 89 70 349 328 322 296 264 268 264 260 260 257 264 264 272 268 258 259 259 250
158 158 155 153 155 153 149 147 149 151 148 142 142 144 157 162 171 168 152 160 147 126 106 307 267 280 293 292 290 282 279 281 277 266 262 263 255 256 258 256 255 256 256
165 167 164 162 158 150 147 149 152 150 150 147 149 161 166 155 150 143 147 150 154 168 192 319 321 319 300 288 312 285 271 287 300 298 288 278 276 270 260 262 250 244 251
176 174 170 169 171 169 165 158 157 156 149 150 155 154 139 133 137 138 151 143 149 141 99 292 297 314 311 343 356 12 325 314 303 306 308 301 291 297 286 276 267 245 236
174 175 180 182 182 177 168 168 168 153 145 148 153 153 149 143 157 159 144 166 183 156 111 294 313 295 301 342 353 4 15 326 305 303 314 318 319 323 305 294 287 266 255
174 175 174 175 175 167 162 157 156 151 151 155 164 165 154 157 172 162 177 209 200 195 206 254 277 287 310 347 352 357 8 322 309 303 296 300 314 320 323 320 314 296 282
175 174 171 167 164 164 159 147 150 152 161 180 191 187 173 173 179 189 200 202 194 231 237 253 263 282 308 337 342 11 351 320 316 316 315 311 310 320 334 332 318 315 313
158 158 150 144 152 161 150 147 159 166 191 200 199 189 184 183 191 199 203 196 191 206 221 279 283 268 290 319 338 14 342 321 319 322 323 323 318 322 337 327 311 308 309
146 143 145 153 160 155 149 157 168 191 204 192 182 186 191 191 191 189 184 174 174 178 234 280 289 284 291 312 328 355 314 284 301 317 321 323 328 322 321 312 286 278 291
131 136 141 147 144 144 149 164 188 197 169 162 171 187 193 193 178 169 173 158 152 160 262 283 303 304 304 307 314 317 303 293 265 290 305 315 330 330 327 321 308 302 311
140 137 141 138 132 150 159 172 192 159 145 152 171 185 192 191 172 168 169 161 162 184 229 250 269 284 294 303 310 312 310 307 284 288 301 315 328 331 334 337 332 332 336
150 145 141 148 161 152 157 176 172 151 150 164 184 178 176 193 186 179 177 181 199 208 220 237 258 273 285 292 304 307 310 316 312 312 323 328 335 346 343 347 350 355 341
152 155 155 161 174 166 169 172 160 150 159 173 184 187 187 187 194 201 209 207 218 206 204 221 230 240 264 270 276 280 284 283 284 307 350 360 358 359 356 355 350 351 353
156 155 158 166 173 165 173 177 164 159 161 172 182 186 183 184 187 191 271 282 230 224 219 221 224 243 243 262 278 289 294 295 271 119 12 338 333 330 331 334 338 343 347
Height
1504 1506 1507 1509 1510 1512 1512 1513 1515 1515 1516 1516 1517 1517 1517 1517 1517 1517 1518 1518 1517 1517 1517 1517 1516 1517 1517 1517 1517 1517 1517 1518 1518 1519 1519 1520 1520 1520 1521 1522 1522 1523 1523
1503 1504 1506 1508 1510 1511 1512 1513 1514 1515 1516 1516 1517 1517 1517 1517 1517 1517 1517 1517 1517 1516 1516 1516 1516 1516 1516 1516 1516 1517 1517 1517 1518 1518 1518 1518 1520 1519 1519 1520 1520 1520 1521
1501 1503 1505 1507 1509 1510 1512 1513 1514 1515 1516 1516 1517 1517 1517 1517 1516 1516 1516 1516 1516 1516 1516 1515 1515 1515 1515 1515 1516 1516 1516 1516 1517 1517 1518 1518 1517 1518 1518 1518 1518 1519 1519
1500 1501 1503 1505 1507 1509 1511 1513 1514 1515 1515 1516 1516 1516 1516 1516 1516 1516 1516 1516 1516 1515 1515 1515 1515 1514 1514 1514 1514 1515 1515 1515 1515 1516 1516 1517 1517 1517 1516 1517 1517 1517 1517
1497 1499 1501 1503 1506 1508 1510 1512 1513 1514 1515 1515 1516 1516 1516 1515 1515 1515 1515 1515 1515 1514 1514 1514 1513 1513 1513 1513 1513 1513 1514 1514 1514 1514 1515 1515 1515 1515 1515 1515 1515 1515 1515
1494 1497 1499 1502 1505 1507 1509 1510 1512 1513 1514 1514 1515 1515 1515 1515 1515 1514 1514 1514 1514 1514 1513 1513 1512 1512 1512 1512 1512 1512 1512 1512 1513 1513 1513 1513 1513 1513 1513 1513 1513 1513 1513
1491 1494 1497 1500 1502 1505 1507 1508 1510 1511 1512 1513 1514 1514 1514 1514 1514 1513 1513 1513 1512 1512 1512 1512 1512 1511 1511 1511 1511 1511 1511 1511 1511 1511 1511 1512 1512 1512 1512 1512 1511 1510 1510
1489 1492 1494 1497 1500 1502 1505 1507 1508 1510 1511 1512 1512 1513 1513 1513 1513 1513 1512 1512 1511 1511 1511 1511 1510 1510 1510 1510 1509 1509 1509 1509 1509 1509 1509 1509 1510 1510 1509 1509 1509 1508 1507
1487 1490 1492 1495 1498 1500 1503 1505 1506 1508 1509 1510 1511 1511 1512 1512 1512 1512 1511 1511 1511 1510 1510 1509 1509 1509 1509 1508 1508 1508 1507 1508 1508 1507 1507 1507 1507 1507 1507 1507 1507 1507 1505
1486 1488 1491 1493 1496 1498 1501 1503 1505 1506 1507 1508 1509 1510 1510 1510 1511 1511 1510 1510 1510 1509 1509 1508 1508 1507 1507 1507 1507 1506 1506 1506 1505 1505 1505 1505 1504 1504 1504 1503 1504 1503 1503
1484 1486 1489 1492 1494 1497 1499 1502 1503 1505 1506 1507 1508 1508 1509 1509 1509 1509 1509 1509 1509 1508 1508 1507 1507 1506 1506 1505 1505 1505 1504 1504 1503 1503 1503 1502 1502 1502 1501 1501 1501 1500 1500
1483 1486 1488 1491 1493 1495 1498 1500 1501 1502 1504 1505 1506 1507 1507 1507 1508 1507 1507 1508 1507 1507 1507 1506 1505 1505 1504 1504 1503 1503 1502 1502 1501 1501 1501 1500 1499 1499 1499 1498 1498 1497 1497
1482 1485 1487 1489 1491 1494 1496 1498 1499 1501 1502 1503 1504 1505 1506 1506 1506 1506 1506 1506 1506 1506 1506 1505 1504 1504 1503 1503 1502 1501 1501 1500 1499 1499 1498 1497 1497 1496 1496 1495 1495 1494 1494
1481 1483 1486 1488 1491 1493 1494 1496 1498 1500 1501 1502 1503 1503 1504 1504 1505 1505 1505 1505 1505 1505 1504 1504 1503 1503 1502 1501 1500 1499 1499 1498 1497 1496 1496 1495 1494 1493 1493 1492 1491 1491 1490
1480 1482 1485 1487 1489 1492 1494 1495 1497 1498 1499 1500 1501 1501 1502 1503 1504 1504 1504 1504 1504 1504 1503 1503 1502 1501 1501 1500 1499 1498 1497 1496 1495 1494 1493 1492 1492 1491 1490 1489 1488 1488 1487
1479 1481 1484 1487 1488 1491 1492 1494 1495 1497 1498 1499 1499 1500 1501 1502 1502 1502 1503 1503 1503 1503 1502 1501 1501 1500 1499 1498 1497 1496 1495 1494 1493 1492 1491 1490 1489 1488 1487 1486 1486 1485 1484
1477 1480 1483 1485 1487 1489 1491 1493 1494 1495 1497 1498 1498 1499 1499 1500 1501 1501 1502 1502 1502 1501 1501 1500 1499 1498 1497 1496 1496 1495 1494 1493 1491 1490 1489 1487 1487 1486 1484 1483 1482 1482 1481
1476 1479 1481 1484 1486 1488 1490 1491 1493 1494 1494 1496 1497 1497 1498 1498 1499 1500 1500 1501 1500 1499 1499 1498 1497 1496 1496 1495 1494 1493 1492 1491 1490 1489 1487 1486 1484 1482 1481 1480 1479 1478 1477
1475 1478 1480 1482 1484 1487 1488 1489 1491 1492 1493 1494 1495 1495 1496 1497 1497 1498 1498 1498 1498 1498 1497 1496 1496 1495 1494 1494 1493 1492 1491 1490 1488 1487 1486 1484 1482 1480 1479 1477 1476 1475 1474
1475 1477 1478 1480 1483 1485 1486 1488 1489 1490 1491 1492 1493 1494 1495 1495 1496 1496 1496 1497 1496 1496 1495 1494 1494 1493 1493 1492 1491 1490 1489 1488 1487 1485 1483 1481 1479 1478 1476 1475 1473 1472 1471
1474 1476 1478 1479 1481 1484 1485 1486 1488 1489 1490 1491 1491 1492 1493 1494 1494 1495 1495 1495 1495 1494 1493 1493 1493 1492 1491 1491 1490 1489 1488 1486 1485 1483 1481 1479 1478 1476 1474 1472 1471 1470 1469
1475 1476 1478 1479 1481 1482 1484 1485 1486 1487 1489 1489 1490 1490 1491 1492 1492 1493 1493 1493 1493 1492 1492 1492 1491 1490 1489 1489 1488 1487 1486 1485 1483 1481 1479 1478 1476 1474 1472 1470 1469 1468 1467
1474 1476 1478 1480 1480 1482 1483 1484 1485 1486 1487 1488 1488 1489 1490 1490 1490 1491 1491 1491 1490 1490 1490 1489 1488 1488 1487 1487 1486 1486 1485 1483 1482 1480 1478 1476 1474 1472 1470 1468 1467 1465 1464
1474 1476 1477 1479 1480 1481 1482 1483 1484 1484 1485 1486 1486 1487 1487 1488 1488 1488 1488 1488 1488 1488 1487 1487 1486 1485 1485 1484 1484 1483 1482 1481 1480 1478 1476 1475 1473 1471 1469 1466 1464 1463 1462
1473 1475 1476 1477 1478 1480 1481 1482 1482 1483 1483 1483 1484 1485 1485 1485 1486 1486 1486 1486 1486 1486 1486 1485 1484 1483 1482 1482 1482 1481 1480 1478 1477 1476 1474 1472 1470 1468 1467 1465 1463 1462 1460
1472 1474 1475 1476 1477 1478 1479 1480 1480 1480 1481 1481 1482 1482 1482 1483 1483 1483 1484 1483 1484 1484 1484 1484 1483 1482 1481 1480 1479 1478 1477 1476 1475 1474 1472 1470 1468 1467 1465 1463 1462 1460 1459